Time,TemperatureF,DewpointF,PressureIn,WindDirection,WindDirectionDegrees,WindSpeedMPH,WindSpeedGustMPH,Humidity,HourlyPrecipIn,Conditions,Clouds,dailyrainin,SoftwareType,DateUTC
2013-02-27 00:00:00,27.0,23.1,29.84,NNE,17,4.0,11.0,85,0.00,,SKC,0.00,VWS V14.01,2013-02-27 06:00:00,
2013-02-27 00:05:00,26.9,23.0,29.84,NNE,17,3.0,5.0,85,0.00,,SKC,0.00,VWS V14.01,2013-02-27 06:05:00,
2013-02-27 00:10:00,26.7,23.1,29.84,NNE,15,4.0,6.0,86,0.00,,SKC,0.00,VWS V14.01,2013-02-27 06:10:00,
2013-02-27 00:15:00,26.6,23.0,29.84,North,5,4.0,6.0,86,0.00,,SKC,0.00,VWS V14.01,2013-02-27 06:15:00,
2013-02-27 00:25:00,26.3,23.0,29.84,North,360,4.0,8.0,87,0.00,,SKC,0.00,VWS V14.01,2013-02-27 06:25:00,
2013-02-27 00:30:00,26.2,22.9,29.84,North,360,2.0,8.0,87,0.00,,SKC,0.00,VWS V14.01,2013-02-27 06:30:00,
2013-02-27 00:35:00,26.2,23.1,29.84,North,360,6.0,6.0,88,0.00,,SKC,0.00,VWS V14.01,2013-02-27 06:35:00,
2013-02-27 00:40:00,26.1,23.0,29.84,North,360,4.0,6.0,88,0.00,,SKC,0.00,VWS V14.01,2013-02-27 06:40:00,
2013-02-27 00:45:00,26.0,22.9,29.84,North,360,6.0,6.0,88,0.00,,SKC,0.00,VWS V14.01,2013-02-27 06:45:00,
2013-02-27 00:50:00,25.9,22.8,29.84,North,360,4.0,6.0,88,0.00,,SKC,0.00,VWS V14.01,2013-02-27 06:50:00,
2013-02-27 00:55:00,25.8,22.7,29.84,North,360,4.0,6.0,88,0.00,,SKC,0.00,VWS V14.01,2013-02-27 06:55:00,
2013-02-27 01:00:00,25.7,22.9,29.84,NNW,348,6.0,8.0,89,0.00,,SKC,0.00,VWS V14.01,2013-02-27 07:00:00,
2013-02-27 01:01:00,25.7,22.9,29.84,North,360,5.0,6.0,89,0.00,,SKC,0.00,VWS V14.01,2013-02-27 07:01:00,
2013-02-27 01:06:00,25.7,22.9,29.83,NNW,338,5.0,8.0,89,0.00,,SKC,0.00,VWS V14.01,2013-02-27 07:06:00,
2013-02-27 01:11:00,25.7,22.9,29.83,NNW,344,5.0,8.0,89,0.00,,SKC,0.00,VWS V14.01,2013-02-27 07:11:00,
2013-02-27 01:16:00,25.8,23.3,29.83,NNW,348,6.0,13.0,90,0.00,,SKC,0.00,VWS V14.01,2013-02-27 07:16:00,
2013-02-27 01:21:00,25.8,23.3,29.83,NNW,344,4.0,13.0,90,0.00,,SKC,0.00,VWS V14.01,2013-02-27 07:21:00,
2013-02-27 01:26:00,25.8,23.3,29.83,NNW,346,4.0,13.0,90,0.00,,SKC,0.00,VWS V14.01,2013-02-27 07:26:00,
2013-02-27 01:30:00,25.7,23.2,29.84,North,355,4.0,13.0,90,0.00,,SKC,0.00,VWS V14.01,2013-02-27 07:30:00,
2013-02-27 01:31:00,25.8,23.3,29.84,North,349,1.0,13.0,90,0.00,,SKC,0.00,VWS V14.01,2013-02-27 07:31:00,
2013-02-27 01:36:00,25.7,23.2,29.83,North,355,6.0,6.0,90,0.00,,SKC,0.00,VWS V14.01,2013-02-27 07:36:00,
2013-02-27 01:41:00,25.7,23.2,29.84,North,355,5.0,8.0,90,0.00,,SKC,0.00,VWS V14.01,2013-02-27 07:41:00,
2013-02-27 01:46:00,25.8,23.3,29.84,NNW,340,5.0,10.0,90,0.00,,SKC,0.00,VWS V14.01,2013-02-27 07:46:00,
2013-02-27 01:51:00,25.9,23.4,29.83,North,351,2.0,10.0,90,0.00,,SKC,0.00,VWS V14.01,2013-02-27 07:51:00,
2013-02-27 01:56:00,26.0,23.5,29.83,NNW,347,4.0,10.0,90,0.00,,SKC,0.00,VWS V14.01,2013-02-27 07:56:00,
2013-02-27 02:00:00,26.4,24.1,29.83,North,355,4.0,10.0,91,0.00,,SKC,0.00,VWS V14.01,2013-02-27 08:00:00,
2013-02-27 02:01:00,26.2,23.7,29.83,North,355,4.0,10.0,90,0.00,,SKC,0.00,VWS V14.01,2013-02-27 08:01:00,
2013-02-27 02:06:00,26.4,24.1,29.83,North,355,2.0,4.0,91,0.00,,SKC,0.00,VWS V14.01,2013-02-27 08:06:00,
2013-02-27 02:11:00,26.5,24.2,29.83,North,5,4.0,7.0,91,0.00,,SKC,0.00,VWS V14.01,2013-02-27 08:11:00,
2013-02-27 02:16:00,26.5,24.2,29.83,North,5,2.0,7.0,91,0.00,,SKC,0.00,VWS V14.01,2013-02-27 08:16:00,
2013-02-27 02:21:00,26.6,24.3,29.83,North,355,2.0,8.0,91,0.00,,SKC,0.00,VWS V14.01,2013-02-27 08:21:00,
2013-02-27 02:26:00,26.7,24.4,29.83,North,5,5.0,8.0,91,0.00,,SKC,0.00,VWS V14.01,2013-02-27 08:26:00,
2013-02-27 02:30:00,26.8,24.5,29.83,North,9,2.0,8.0,91,0.00,,SKC,0.00,VWS V14.01,2013-02-27 08:30:00,
2013-02-27 02:31:00,26.7,24.4,29.83,North,360,4.0,8.0,91,0.00,,SKC,0.00,VWS V14.01,2013-02-27 08:31:00,
2013-02-27 02:36:00,26.8,24.5,29.83,North,9,0.0,2.0,91,0.00,,SKC,0.00,VWS V14.01,2013-02-27 08:36:00,
2013-02-27 02:41:00,26.9,24.6,29.83,North,9,4.0,5.0,91,0.00,,SKC,0.00,VWS V14.01,2013-02-27 08:41:00,
2013-02-27 02:46:00,26.9,24.4,29.83,North,9,2.0,5.0,90,0.00,,SKC,0.00,VWS V14.01,2013-02-27 08:46:00,
2013-02-27 02:51:00,27.1,24.8,29.83,North,9,2.0,5.0,91,0.00,,SKC,0.00,VWS V14.01,2013-02-27 08:51:00,
2013-02-27 02:56:00,27.2,24.9,29.83,North,5,0.0,6.0,91,0.00,,SKC,0.00,VWS V14.01,2013-02-27 08:56:00,
2013-02-27 03:00:00,27.2,24.9,29.83,North,9,2.0,6.0,91,0.00,,SKC,0.00,VWS V14.01,2013-02-27 09:00:00,
2013-02-27 03:02:00,27.2,24.9,29.83,North,9,0.0,6.0,91,0.00,,SKC,0.00,VWS V14.01,2013-02-27 09:02:00,
2013-02-27 03:07:00,27.2,24.9,29.83,North,9,2.0,3.0,91,0.00,,SKC,0.00,VWS V14.01,2013-02-27 09:07:00,
2013-02-27 03:12:00,27.2,24.9,29.83,North,5,0.0,5.0,91,0.00,,SKC,0.00,VWS V14.01,2013-02-27 09:12:00,
2013-02-27 03:17:00,27.3,25.0,29.83,North,9,4.0,5.0,91,0.00,,SKC,0.00,VWS V14.01,2013-02-27 09:17:00,
2013-02-27 03:22:00,27.4,24.9,29.82,North,5,4.0,8.0,90,0.00,,SKC,0.00,VWS V14.01,2013-02-27 09:22:00,
2013-02-27 03:27:00,27.4,24.9,29.82,North,355,3.0,8.0,90,0.00,,SKC,0.00,VWS V14.01,2013-02-27 09:27:00,
2013-02-27 03:30:00,27.4,24.9,29.82,NNW,346,2.0,8.0,90,0.00,,SKC,0.00,VWS V14.01,2013-02-27 09:30:00,
2013-02-27 03:32:00,27.4,24.9,29.82,North,349,4.0,8.0,90,0.00,,SKC,0.00,VWS V14.01,2013-02-27 09:32:00,
2013-02-27 03:37:00,27.5,25.2,29.82,North,350,6.0,7.0,91,0.00,,SKC,0.00,VWS V14.01,2013-02-27 09:37:00,
2013-02-27 03:42:00,27.6,25.1,29.82,NNW,340,3.0,7.0,90,0.00,,SKC,0.00,VWS V14.01,2013-02-27 09:42:00,
2013-02-27 03:47:00,27.6,25.1,29.82,North,355,4.0,8.0,90,0.00,,SKC,0.00,VWS V14.01,2013-02-27 09:47:00,
2013-02-27 03:52:00,27.6,25.1,29.82,North,355,5.0,9.0,90,0.00,,SKC,0.00,VWS V14.01,2013-02-27 09:52:00,
2013-02-27 03:57:00,27.6,25.1,29.82,North,5,5.0,9.0,90,0.00,,SKC,0.00,VWS V14.01,2013-02-27 09:57:00,
2013-02-27 04:00:00,27.7,25.2,29.82,North,351,5.0,9.0,90,0.00,,SKC,0.00,VWS V14.01,2013-02-27 10:00:00,
2013-02-27 04:02:00,27.6,25.1,29.82,North,355,4.0,9.0,90,0.00,,SKC,0.00,VWS V14.01,2013-02-27 10:02:00,
2013-02-27 04:07:00,27.7,25.2,29.82,North,5,9.0,9.0,90,0.00,,SKC,0.00,VWS V14.01,2013-02-27 10:07:00,
2013-02-27 04:12:00,27.8,25.2,29.83,North,355,5.0,9.0,90,0.00,,SKC,0.00,VWS V14.01,2013-02-27 10:12:00,
2013-02-27 04:17:00,27.8,25.2,29.83,North,355,5.0,9.0,90,0.00,,SKC,0.00,VWS V14.01,2013-02-27 10:17:00,
2013-02-27 04:22:00,27.9,25.4,29.82,North,5,4.0,9.0,90,0.00,,SKC,0.00,VWS V14.01,2013-02-27 10:22:00,
2013-02-27 04:27:00,28.1,25.5,29.82,NNE,25,5.0,9.0,90,0.00,,SKC,0.00,VWS V14.01,2013-02-27 10:27:00,
2013-02-27 04:30:00,28.0,25.5,29.82,NNW,343,6.0,9.0,90,0.00,,SKC,0.00,VWS V14.01,2013-02-27 10:30:00,
2013-02-27 04:32:00,28.1,25.5,29.82,NNW,342,2.0,9.0,90,0.00,,SKC,0.00,VWS V14.01,2013-02-27 10:32:00,
2013-02-27 04:37:00,28.0,25.5,29.82,NNE,13,5.0,10.0,90,0.00,,SKC,0.00,VWS V14.01,2013-02-27 10:37:00,
2013-02-27 04:42:00,28.0,25.2,29.82,North,350,4.0,10.0,89,0.00,,SKC,0.00,VWS V14.01,2013-02-27 10:42:00,
2013-02-27 04:47:00,28.0,25.2,29.82,NNW,339,4.0,10.0,89,0.00,,SKC,0.00,VWS V14.01,2013-02-27 10:47:00,
2013-02-27 04:52:00,28.0,25.2,29.82,NNW,340,6.0,10.0,89,0.00,,SKC,0.00,VWS V14.01,2013-02-27 10:52:00,
2013-02-27 04:58:00,28.0,25.2,29.82,NNW,338,2.0,10.0,89,0.00,,SKC,0.00,VWS V14.01,2013-02-27 10:58:00,
2013-02-27 05:00:00,27.9,25.1,29.82,NNW,348,4.0,10.0,89,0.00,,SKC,0.00,VWS V14.01,2013-02-27 11:00:00,
2013-02-27 05:04:00,28.0,25.2,29.82,NNW,339,4.0,10.0,89,0.00,,SKC,0.00,VWS V14.01,2013-02-27 11:04:00,
2013-02-27 05:09:00,28.0,25.2,29.82,NNW,346,4.0,6.0,89,0.00,,SKC,0.00,VWS V14.01,2013-02-27 11:09:00,
2013-02-27 05:14:00,27.9,25.1,29.83,NNW,346,5.0,6.0,89,0.00,,SKC,0.00,VWS V14.01,2013-02-27 11:14:00,
2013-02-27 05:19:00,27.9,25.1,29.82,NNW,344,2.0,9.0,89,0.00,,SKC,0.00,VWS V14.01,2013-02-27 11:19:00,
2013-02-27 05:24:00,27.9,25.1,29.83,NNW,339,4.0,9.0,89,0.00,,SKC,0.00,VWS V14.01,2013-02-27 11:24:00,
2013-02-27 05:29:00,27.9,25.1,29.83,NNW,340,4.0,9.0,89,0.00,,SKC,0.00,VWS V14.01,2013-02-27 11:29:00,
2013-02-27 05:30:00,27.8,25.0,29.83,NNW,333,4.0,9.0,89,0.00,,SKC,0.00,VWS V14.01,2013-02-27 11:30:00,
2013-02-27 05:34:00,27.9,25.1,29.83,NNW,333,4.0,9.0,89,0.00,,SKC,0.00,VWS V14.01,2013-02-27 11:34:00,
2013-02-27 05:39:00,27.8,25.0,29.83,NNW,338,7.0,7.0,89,0.00,,SKC,0.00,VWS V14.01,2013-02-27 11:39:00,
2013-02-27 05:44:00,27.8,25.0,29.83,NNW,344,5.0,9.0,89,0.00,,SKC,0.00,VWS V14.01,2013-02-27 11:44:00,
2013-02-27 05:49:00,27.8,25.0,29.82,NNW,342,3.0,9.0,89,0.00,,SKC,0.00,VWS V14.01,2013-02-27 11:49:00,
2013-02-27 05:55:00,27.7,24.9,29.83,NNW,344,2.0,9.0,89,0.00,,SKC,0.00,VWS V14.01,2013-02-27 11:55:00,
2013-02-27 06:00:00,27.8,25.0,29.83,NNW,344,4.0,9.0,89,0.00,,SKC,0.00,VWS V14.01,2013-02-27 12:00:00,
2013-02-27 06:05:00,27.8,25.0,29.83,NNW,343,4.0,9.0,89,0.00,,SKC,0.00,VWS V14.01,2013-02-27 12:05:00,
2013-02-27 06:10:00,27.6,24.8,29.83,NNW,340,2.0,7.0,89,0.00,,SKC,0.00,VWS V14.01,2013-02-27 12:10:00,
2013-02-27 06:15:00,27.5,24.7,29.83,NNW,338,5.0,8.0,89,0.00,,SKC,0.00,VWS V14.01,2013-02-27 12:15:00,
2013-02-27 06:20:00,27.3,24.5,29.83,North,349,5.0,8.0,89,0.00,,SKC,0.00,VWS V14.01,2013-02-27 12:20:00,
2013-02-27 06:25:00,27.2,24.4,29.83,NNW,341,5.0,11.0,89,0.00,,SKC,0.00,VWS V14.01,2013-02-27 12:25:00,
2013-02-27 06:30:00,27.2,24.4,29.83,NNW,331,6.0,11.0,89,0.00,,SKC,0.00,VWS V14.01,2013-02-27 12:30:00,
2013-02-27 06:35:00,27.2,24.4,29.83,NNW,328,7.0,11.0,89,0.00,,SKC,0.00,VWS V14.01,2013-02-27 12:35:00,
2013-02-27 06:40:00,27.0,24.2,29.83,NW,324,6.0,9.0,89,0.00,,SKC,0.00,VWS V14.01,2013-02-27 12:40:00,
2013-02-27 06:45:00,27.0,24.2,29.83,NW,324,4.0,9.0,89,0.00,,SKC,0.00,VWS V14.01,2013-02-27 12:45:00,
2013-02-27 06:50:00,26.7,23.9,29.83,NW,321,6.0,10.0,89,0.00,,SKC,0.00,VWS V14.01,2013-02-27 12:50:00,
2013-02-27 06:55:00,26.5,23.7,29.84,NW,322,6.0,10.0,89,0.00,,SKC,0.00,VWS V14.01,2013-02-27 12:55:00,
2013-02-27 07:00:00,26.2,23.4,29.84,NNW,330,6.0,10.0,89,0.00,,SKC,0.00,VWS V14.01,2013-02-27 13:00:00,
2013-02-27 07:05:00,26.1,23.3,29.84,NNW,329,5.0,10.0,89,0.00,,SKC,0.00,VWS V14.01,2013-02-27 13:05:00,
2013-02-27 07:10:00,26.0,23.2,29.84,NW,326,6.0,10.0,89,0.00,,SKC,0.00,VWS V14.01,2013-02-27 13:10:00,
2013-02-27 07:15:00,25.8,23.0,29.84,NNW,327,8.0,10.0,89,0.00,,SKC,0.00,VWS V14.01,2013-02-27 13:15:00,
2013-02-27 07:20:00,25.7,22.9,29.85,NNW,327,5.0,10.0,89,0.00,,SKC,0.00,VWS V14.01,2013-02-27 13:20:00,
2013-02-27 07:25:00,25.6,22.8,29.85,NW,325,5.0,10.0,89,0.00,,SKC,0.00,VWS V14.01,2013-02-27 13:25:00,
2013-02-27 07:30:00,25.6,23.1,29.85,NW,326,4.0,10.0,90,0.00,,SKC,0.00,VWS V14.01,2013-02-27 13:30:00,
2013-02-27 07:35:00,25.5,23.0,29.85,NNW,333,5.0,10.0,90,0.00,,SKC,0.00,VWS V14.01,2013-02-27 13:35:00,
2013-02-27 07:40:00,25.4,22.9,29.85,NNW,339,5.0,8.0,90,0.00,,SKC,0.00,VWS V14.01,2013-02-27 13:40:00,
2013-02-27 07:45:00,25.4,22.9,29.86,NNW,330,7.0,11.0,90,0.00,,SKC,0.00,VWS V14.01,2013-02-27 13:45:00,
2013-02-27 07:50:00,25.4,22.9,29.86,NW,323,6.0,11.0,90,0.00,,SKC,0.00,VWS V14.01,2013-02-27 13:50:00,
2013-02-27 07:56:00,25.5,23.0,29.86,NNW,342,4.0,11.0,90,0.00,,SKC,0.00,VWS V14.01,2013-02-27 13:56:00,
2013-02-27 08:00:00,25.8,23.3,29.86,North,350,4.0,11.0,90,0.00,,SKC,0.00,VWS V14.01,2013-02-27 14:00:00,
2013-02-27 08:01:00,25.6,23.1,29.86,NNW,342,6.0,11.0,90,0.00,,SKC,0.00,VWS V14.01,2013-02-27 14:01:00,
2013-02-27 08:06:00,25.8,23.3,29.86,North,350,4.0,5.0,90,0.00,,SKC,0.00,VWS V14.01,2013-02-27 14:06:00,
2013-02-27 08:11:00,26.0,23.5,29.86,NNW,331,5.0,10.0,90,0.00,,SKC,0.00,VWS V14.01,2013-02-27 14:11:00,
2013-02-27 08:16:00,26.2,23.7,29.86,NNW,340,4.0,10.0,90,0.00,,SKC,0.00,VWS V14.01,2013-02-27 14:16:00,
2013-02-27 08:21:00,26.4,23.9,29.86,NNW,341,5.0,10.0,90,0.00,,SKC,0.00,VWS V14.01,2013-02-27 14:21:00,
2013-02-27 08:26:00,26.7,23.9,29.86,North,355,7.0,10.0,89,0.00,,SKC,0.00,VWS V14.01,2013-02-27 14:26:00,
2013-02-27 08:30:00,27.2,24.1,29.86,NNW,328,6.0,10.0,88,0.00,,SKC,0.00,VWS V14.01,2013-02-27 14:30:00,
2013-02-27 08:31:00,27.0,24.2,29.86,NNW,340,4.0,10.0,89,0.00,,SKC,0.00,VWS V14.01,2013-02-27 14:31:00,
2013-02-27 08:36:00,27.2,24.1,29.86,NNW,344,5.0,8.0,88,0.00,,SKC,0.00,VWS V14.01,2013-02-27 14:36:00,
2013-02-27 08:41:00,27.4,24.3,29.86,NNW,346,6.0,9.0,88,0.00,,SKC,0.00,VWS V14.01,2013-02-27 14:41:00,
2013-02-27 08:46:00,27.7,24.3,29.86,NNW,338,4.0,10.0,87,0.00,,SKC,0.00,VWS V14.01,2013-02-27 14:46:00,
2013-02-27 08:51:00,27.9,24.3,29.86,NNW,331,5.0,10.0,86,0.00,,SKC,0.00,VWS V14.01,2013-02-27 14:51:00,
2013-02-27 08:56:00,28.0,24.4,29.86,NNW,339,5.0,10.0,86,0.00,,SKC,0.00,VWS V14.01,2013-02-27 14:56:00,
2013-02-27 09:00:00,28.7,25.0,29.86,NNW,331,5.0,10.0,86,0.00,,SKC,0.00,VWS V14.01,2013-02-27 15:00:00,
2013-02-27 09:01:00,28.2,24.3,29.86,NNW,346,6.0,10.0,85,0.00,,SKC,0.00,VWS V14.01,2013-02-27 15:01:00,
2013-02-27 09:06:00,28.8,24.9,29.86,NNW,336,5.0,7.0,85,0.00,,SKC,0.00,VWS V14.01,2013-02-27 15:06:00,
2013-02-27 09:13:00,29.8,25.6,29.85,NNW,333,7.0,9.0,84,0.00,,SKC,0.00,VWS V14.01,2013-02-27 15:13:00,
2013-02-27 09:18:00,30.4,25.9,29.85,NW,325,6.0,9.0,83,0.00,,SKC,0.00,VWS V14.01,2013-02-27 15:18:00,
2013-02-27 09:23:00,30.8,25.7,29.85,NNW,339,6.0,10.0,81,0.00,,SKC,0.00,VWS V14.01,2013-02-27 15:23:00,
2013-02-27 09:28:00,31.4,26.0,29.85,NNW,340,5.0,10.0,80,0.00,,SKC,0.00,VWS V14.01,2013-02-27 15:28:00,
2013-02-27 09:30:00,31.9,26.1,29.85,NNW,327,5.0,12.0,79,0.00,,SKC,0.00,VWS V14.01,2013-02-27 15:30:00,
2013-02-27 09:33:00,31.7,25.9,29.85,NNW,335,6.0,11.0,79,0.00,,SKC,0.00,VWS V14.01,2013-02-27 15:33:00,
2013-02-27 09:38:00,32.1,26.0,29.85,NNW,338,6.0,10.0,78,0.00,,SKC,0.00,VWS V14.01,2013-02-27 15:38:00,
2013-02-27 09:43:00,32.6,26.5,29.85,NNW,331,5.0,12.0,78,0.00,,SKC,0.00,VWS V14.01,2013-02-27 15:43:00,
2013-02-27 09:48:00,33.1,26.7,29.85,North,360,4.0,12.0,77,0.00,,SKC,0.00,VWS V14.01,2013-02-27 15:48:00,
2013-02-27 09:53:00,33.5,26.4,29.84,NNW,346,7.0,15.0,75,0.00,,SKC,0.00,VWS V14.01,2013-02-27 15:53:00,
2013-02-27 09:58:00,33.7,26.6,29.84,NNW,332,6.0,15.0,75,0.00,,SKC,0.00,VWS V14.01,2013-02-27 15:58:00,
2013-02-27 10:00:00,34.4,27.3,29.84,North,355,4.0,15.0,75,0.00,,SKC,0.00,VWS V14.01,2013-02-27 16:00:00,
2013-02-27 10:03:00,34.1,27.3,29.84,NW,319,10.0,15.0,76,0.00,,SKC,0.00,VWS V14.01,2013-02-27 16:03:00,
2013-02-27 10:08:00,34.6,27.5,29.84,NNW,347,7.0,14.0,75,0.00,,SKC,0.00,VWS V14.01,2013-02-27 16:08:00,
2013-02-27 10:13:00,35.0,27.2,29.83,NW,326,7.0,14.0,73,0.00,,SKC,0.00,VWS V14.01,2013-02-27 16:13:00,
2013-02-27 10:18:00,35.1,27.0,29.84,NNW,330,8.0,14.0,72,0.00,,SKC,0.00,VWS V14.01,2013-02-27 16:18:00,
2013-02-27 10:24:00,35.2,27.4,29.83,NW,325,2.0,14.0,73,0.00,,SKC,0.00,VWS V14.01,2013-02-27 16:24:00,
2013-02-27 10:29:00,35.8,27.7,29.83,NNW,335,7.0,14.0,72,0.00,,SKC,0.00,VWS V14.01,2013-02-27 16:29:00,
2013-02-27 10:30:00,36.2,27.7,29.83,NNW,331,9.0,14.0,71,0.00,,SKC,0.00,VWS V14.01,2013-02-27 16:30:00,
2013-02-27 10:34:00,36.1,27.6,29.83,NW,322,9.0,14.0,71,0.00,,SKC,0.00,VWS V14.01,2013-02-27 16:34:00,
2013-02-27 10:39:00,36.3,27.8,29.83,NNW,346,7.0,10.0,71,0.00,,SKC,0.00,VWS V14.01,2013-02-27 16:39:00,
2013-02-27 10:44:00,36.5,27.7,29.83,NW,325,10.0,13.0,70,0.00,,SKC,0.00,VWS V14.01,2013-02-27 16:44:00,
2013-02-27 10:49:00,36.7,27.9,29.83,NW,318,8.0,13.0,70,0.00,,SKC,0.00,VWS V14.01,2013-02-27 16:49:00,
2013-02-27 10:54:00,36.8,28.0,29.82,NNW,342,7.0,13.0,70,0.00,,SKC,0.00,VWS V14.01,2013-02-27 16:54:00,
2013-02-27 10:59:00,37.2,28.3,29.82,NNW,344,6.0,13.0,70,0.00,,SKC,0.00,VWS V14.01,2013-02-27 16:59:00,
2013-02-27 11:00:00,37.8,28.6,29.82,NW,317,10.0,14.0,69,0.00,,SKC,0.00,VWS V14.01,2013-02-27 17:00:00,
2013-02-27 11:04:00,37.7,28.5,29.82,North,5,5.0,14.0,69,0.00,,SKC,0.00,VWS V14.01,2013-02-27 17:04:00,
2013-02-27 11:09:00,38.1,28.5,29.82,NNW,342,5.0,12.0,68,0.00,,SKC,0.00,VWS V14.01,2013-02-27 17:09:00,
2013-02-27 11:14:00,38.5,28.5,29.82,NW,320,8.0,13.0,67,0.00,,SKC,0.00,VWS V14.01,2013-02-27 17:14:00,
2013-02-27 11:19:00,38.5,28.5,29.82,NNW,348,4.0,14.0,67,0.00,,SKC,0.00,VWS V14.01,2013-02-27 17:19:00,
2013-02-27 11:24:00,38.8,28.4,29.82,North,355,4.0,15.0,66,0.00,,SKC,0.00,VWS V14.01,2013-02-27 17:24:00,
2013-02-27 11:29:00,39.2,28.4,29.82,NNW,332,7.0,15.0,65,0.00,,SKC,0.00,VWS V14.01,2013-02-27 17:29:00,
2013-02-27 11:30:00,39.3,28.5,29.82,NNW,340,7.0,15.0,65,0.00,,SKC,0.00,VWS V14.01,2013-02-27 17:30:00,
2013-02-27 11:34:00,39.3,28.5,29.82,NW,323,8.0,15.0,65,0.00,,SKC,0.00,VWS V14.01,2013-02-27 17:34:00,
2013-02-27 11:39:00,39.5,28.7,29.82,NNW,333,7.0,10.0,65,0.00,,SKC,0.00,VWS V14.01,2013-02-27 17:39:00,
2013-02-27 11:44:00,39.5,28.7,29.82,North,5,5.0,10.0,65,0.00,,SKC,0.00,VWS V14.01,2013-02-27 17:44:00,
2013-02-27 11:49:00,39.2,27.7,29.82,NNE,12,6.0,13.0,63,0.00,,SKC,0.00,VWS V14.01,2013-02-27 17:49:00,
2013-02-27 11:54:00,39.3,28.5,29.82,NW,325,11.0,13.0,65,0.00,,SKC,0.00,VWS V14.01,2013-02-27 17:54:00,
2013-02-27 11:59:00,39.4,28.2,29.82,NNW,340,8.0,15.0,64,0.00,,SKC,0.00,VWS V14.01,2013-02-27 17:59:00,
2013-02-27 12:00:00,39.4,27.9,29.81,North,5,9.0,15.0,63,0.00,,SKC,0.00,VWS V14.01,2013-02-27 18:00:00,
2013-02-27 12:04:00,39.5,28.0,29.81,NNW,327,12.0,15.0,63,0.00,,SKC,0.00,VWS V14.01,2013-02-27 18:04:00,
2013-02-27 12:09:00,39.4,28.2,29.82,NW,325,12.0,12.0,64,0.00,,SKC,0.00,VWS V14.01,2013-02-27 18:09:00,
2013-02-27 12:14:00,39.3,28.2,29.82,NNW,335,4.0,14.0,64,0.00,,SKC,0.00,VWS V14.01,2013-02-27 18:14:00,
2013-02-27 12:20:00,39.4,28.6,29.82,North,5,7.0,14.0,65,0.00,,SKC,0.00,VWS V14.01,2013-02-27 18:20:00,
2013-02-27 12:25:00,39.5,28.4,29.82,North,349,6.0,14.0,64,0.00,,SKC,0.00,VWS V14.01,2013-02-27 18:25:00,
2013-02-27 12:30:00,39.6,28.4,29.82,NNE,14,7.0,14.0,64,0.00,,SKC,0.00,VWS V14.01,2013-02-27 18:30:00,
2013-02-27 12:35:00,39.0,27.9,29.82,NNE,24,8.0,14.0,64,0.00,,SKC,0.00,VWS V14.01,2013-02-27 18:35:00,
2013-02-27 12:40:00,38.6,27.9,29.82,NNE,17,6.0,11.0,65,0.00,,SKC,0.00,VWS V14.01,2013-02-27 18:40:00,
2013-02-27 12:45:00,38.4,28.0,29.82,NNE,22,6.0,11.0,66,0.00,,SKC,0.00,VWS V14.01,2013-02-27 18:45:00,
2013-02-27 12:50:00,38.3,28.0,29.82,NNE,17,7.0,11.0,66,0.00,,SKC,0.00,VWS V14.01,2013-02-27 18:50:00,
2013-02-27 12:55:00,38.4,28.0,29.82,NNE,24,8.0,11.0,66,0.00,,SKC,0.00,VWS V14.01,2013-02-27 18:55:00,
2013-02-27 13:00:00,39.0,28.2,29.82,North,5,8.0,11.0,65,0.00,,SKC,0.00,VWS V14.01,2013-02-27 19:00:00,
2013-02-27 13:05:00,39.4,28.6,29.82,North,360,6.0,11.0,65,0.00,,SKC,0.00,VWS V14.01,2013-02-27 19:05:00,
2013-02-27 13:10:00,39.4,28.2,29.82,NE,36,9.0,13.0,64,0.00,,SKC,0.00,VWS V14.01,2013-02-27 19:10:00,
2013-02-27 13:15:00,38.7,27.6,29.82,NE,36,6.0,13.0,64,0.00,,SKC,0.00,VWS V14.01,2013-02-27 19:15:00,
2013-02-27 13:20:00,38.5,28.1,29.83,NNE,22,5.0,13.0,66,0.00,,SKC,0.00,VWS V14.01,2013-02-27 19:20:00,
2013-02-27 13:25:00,38.2,27.9,29.83,NE,43,11.0,14.0,66,0.00,,SKC,0.00,VWS V14.01,2013-02-27 19:25:00,
2013-02-27 13:30:00,37.7,27.8,29.83,NE,40,11.0,14.0,67,0.00,,SKC,0.00,VWS V14.01,2013-02-27 19:30:00,
2013-02-27 13:35:00,37.3,27.4,29.83,NE,36,9.0,14.0,67,0.00,,SKC,0.00,VWS V14.01,2013-02-27 19:35:00,
2013-02-27 13:40:00,37.1,27.5,29.83,NE,36,8.0,12.0,68,0.00,,SKC,0.00,VWS V14.01,2013-02-27 19:40:00,
2013-02-27 13:45:00,36.7,27.5,29.83,NE,46,9.0,15.0,69,0.00,,SKC,0.00,VWS V14.01,2013-02-27 19:45:00,
2013-02-27 13:50:00,36.5,27.7,29.83,ENE,57,10.0,16.0,70,0.00,,SKC,0.00,VWS V14.01,2013-02-27 19:50:00,
2013-02-27 13:55:00,36.0,27.2,29.83,NE,51,13.0,16.0,70,0.00,,SKC,0.00,VWS V14.01,2013-02-27 19:55:00,
2013-02-27 14:00:00,35.2,26.8,29.84,NE,52,13.0,18.0,71,0.00,,SKC,0.00,VWS V14.01,2013-02-27 20:00:00,
2013-02-27 14:05:00,34.7,26.6,29.84,NE,50,13.0,13.0,72,0.00,,SKC,0.00,VWS V14.01,2013-02-27 20:05:00,
2013-02-27 14:11:00,34.3,26.6,29.84,NE,49,11.0,16.0,73,0.00,,SKC,0.00,VWS V14.01,2013-02-27 20:11:00,
2013-02-27 14:16:00,34.1,26.4,29.84,NE,47,10.0,18.0,73,0.00,,SKC,0.00,VWS V14.01,2013-02-27 20:16:00,
2013-02-27 14:21:00,34.1,26.7,29.84,NE,51,13.0,18.0,74,0.00,,SKC,0.00,VWS V14.01,2013-02-27 20:21:00,
2013-02-27 14:26:00,34.1,26.7,29.85,NE,42,8.0,18.0,74,0.00,,SKC,0.00,VWS V14.01,2013-02-27 20:26:00,
2013-02-27 14:30:00,33.9,26.5,29.85,NE,48,13.0,18.0,74,0.00,,SKC,0.00,VWS V14.01,2013-02-27 20:30:00,
2013-02-27 14:31:00,34.0,26.6,29.85,NE,51,13.0,18.0,74,0.00,,SKC,0.00,VWS V14.01,2013-02-27 20:31:00,
2013-02-27 14:36:00,33.9,26.5,29.84,NE,52,12.0,13.0,74,0.00,,SKC,0.00,VWS V14.01,2013-02-27 20:36:00,
2013-02-27 14:41:00,33.7,26.6,29.85,NE,49,9.0,15.0,75,0.00,,SKC,0.00,VWS V14.01,2013-02-27 20:41:00,
2013-02-27 14:46:00,33.7,26.6,29.85,NE,49,13.0,16.0,75,0.00,,SKC,0.00,VWS V14.01,2013-02-27 20:46:00,
2013-02-27 14:51:00,33.7,26.6,29.85,NE,43,9.0,16.0,75,0.00,,SKC,0.00,VWS V14.01,2013-02-27 20:51:00,
2013-02-27 14:56:00,33.9,27.1,29.85,NE,50,13.0,16.0,76,0.00,,SKC,0.00,VWS V14.01,2013-02-27 20:56:00,
2013-02-27 15:00:00,33.8,26.7,29.85,NE,51,9.0,16.0,75,0.00,,SKC,0.00,VWS V14.01,2013-02-27 21:00:00,
2013-02-27 15:01:00,33.8,26.7,29.85,NE,40,9.0,16.0,75,0.00,,SKC,0.00,VWS V14.01,2013-02-27 21:01:00,
2013-02-27 15:06:00,33.8,26.7,29.85,NE,53,10.0,10.0,75,0.00,,SKC,0.00,VWS V14.01,2013-02-27 21:06:00,
2013-02-27 15:11:00,33.7,26.6,29.85,NE,52,12.0,14.0,75,0.00,,SKC,0.00,VWS V14.01,2013-02-27 21:11:00,
2013-02-27 15:16:00,33.5,26.8,29.85,NE,53,8.0,14.0,76,0.00,,SKC,0.00,VWS V14.01,2013-02-27 21:16:00,
2013-02-27 15:21:00,33.6,26.9,29.85,NE,48,10.0,14.0,76,0.00,,SKC,0.00,VWS V14.01,2013-02-27 21:21:00,
2013-02-27 15:26:00,33.6,26.9,29.85,NE,55,11.0,14.0,76,0.00,,SKC,0.00,VWS V14.01,2013-02-27 21:26:00,
2013-02-27 15:30:00,33.3,26.9,29.86,NE,50,7.0,14.0,77,0.00,,SKC,0.00,VWS V14.01,2013-02-27 21:30:00,
2013-02-27 15:31:00,33.4,26.7,29.85,NE,51,9.0,14.0,76,0.00,,SKC,0.00,VWS V14.01,2013-02-27 21:31:00,
2013-02-27 15:36:00,33.3,26.9,29.86,NE,46,6.0,9.0,77,0.00,,SKC,0.00,VWS V14.01,2013-02-27 21:36:00,
2013-02-27 15:41:00,33.4,26.7,29.86,NE,42,10.0,13.0,76,0.00,,SKC,0.00,VWS V14.01,2013-02-27 21:41:00,
2013-02-27 15:46:00,33.3,26.6,29.86,NE,50,10.0,15.0,76,0.00,,SKC,0.00,VWS V14.01,2013-02-27 21:46:00,
2013-02-27 15:51:00,33.2,26.5,29.86,NE,46,9.0,15.0,76,0.00,,SKC,0.00,VWS V14.01,2013-02-27 21:51:00,
2013-02-27 15:56:00,33.1,26.4,29.86,NE,38,9.0,15.0,76,0.00,,SKC,0.00,VWS V14.01,2013-02-27 21:56:00,
2013-02-27 16:00:00,32.7,26.0,29.86,NE,49,14.0,15.0,76,0.00,,SKC,0.00,VWS V14.01,2013-02-27 22:00:00,
2013-02-27 16:01:00,32.9,26.2,29.86,NE,45,8.0,15.0,76,0.00,,SKC,0.00,VWS V14.01,2013-02-27 22:01:00,
2013-02-27 16:06:00,32.6,25.9,29.86,NE,50,9.0,14.0,76,0.00,,SKC,0.00,VWS V14.01,2013-02-27 22:06:00,
2013-02-27 16:11:00,32.4,26.0,29.86,NE,46,10.0,14.0,77,0.00,,SKC,0.00,VWS V14.01,2013-02-27 22:11:00,
2013-02-27 16:17:00,32.3,26.2,29.86,NE,48,11.0,14.0,78,0.00,,SKC,0.00,VWS V14.01,2013-02-27 22:17:00,
2013-02-27 16:22:00,32.2,26.1,29.86,NE,50,9.0,14.0,78,0.00,,SKC,0.00,VWS V14.01,2013-02-27 22:22:00,
2013-02-27 16:27:00,32.2,26.1,29.87,NE,43,6.0,14.0,78,0.00,,SKC,0.00,VWS V14.01,2013-02-27 22:27:00,
2013-02-27 16:30:00,32.1,26.0,29.87,NE,46,8.0,14.0,78,0.00,,SKC,0.00,VWS V14.01,2013-02-27 22:30:00,
2013-02-27 16:32:00,32.1,26.0,29.87,NE,43,9.0,14.0,78,0.00,,SKC,0.00,VWS V14.01,2013-02-27 22:32:00,
2013-02-27 16:37:00,32.0,25.9,29.87,NE,46,10.0,10.0,78,0.00,,SKC,0.00,VWS V14.01,2013-02-27 22:37:00,
2013-02-27 16:42:00,31.9,25.8,29.87,NE,46,9.0,10.0,78,0.00,,SKC,0.00,VWS V14.01,2013-02-27 22:42:00,
2013-02-27 16:47:00,31.8,25.7,29.87,NE,49,8.0,11.0,78,0.00,,SKC,0.00,VWS V14.01,2013-02-27 22:47:00,
2013-02-27 16:52:00,31.6,25.9,29.87,NE,49,8.0,12.0,79,0.00,,SKC,0.00,VWS V14.01,2013-02-27 22:52:00,
2013-02-27 16:57:00,31.4,25.6,29.87,NE,49,8.0,12.0,79,0.00,,SKC,0.00,VWS V14.01,2013-02-27 22:57:00,
2013-02-27 17:00:00,31.1,25.4,29.88,NE,45,9.0,12.0,79,0.00,,SKC,0.00,VWS V14.01,2013-02-27 23:00:00,
2013-02-27 17:02:00,31.2,25.5,29.88,NE,53,9.0,12.0,79,0.00,,SKC,0.00,VWS V14.01,2013-02-27 23:02:00,
2013-02-27 17:07:00,31.0,25.6,29.88,NE,46,7.0,11.0,80,0.00,,SKC,0.00,VWS V14.01,2013-02-27 23:07:00,
2013-02-27 17:12:00,30.9,25.5,29.88,NE,47,8.0,11.0,80,0.00,,SKC,0.00,VWS V14.01,2013-02-27 23:12:00,
2013-02-27 17:17:00,30.8,25.4,29.88,NE,53,8.0,12.0,80,0.00,,SKC,0.00,VWS V14.01,2013-02-27 23:17:00,
2013-02-27 17:22:00,30.6,25.2,29.88,NE,53,8.0,12.0,80,0.00,,SKC,0.00,VWS V14.01,2013-02-27 23:22:00,
2013-02-27 17:27:00,30.5,25.4,29.88,NE,53,8.0,12.0,81,0.00,,SKC,0.00,VWS V14.01,2013-02-27 23:27:00,
2013-02-27 17:30:00,30.2,25.1,29.89,NE,54,8.0,12.0,81,0.00,,SKC,0.00,VWS V14.01,2013-02-27 23:30:00,
2013-02-27 17:32:00,30.3,25.2,29.89,NE,53,7.0,12.0,81,0.00,,SKC,0.00,VWS V14.01,2013-02-27 23:32:00,
2013-02-27 17:37:00,30.1,25.0,29.89,NE,54,7.0,8.0,81,0.00,,SKC,0.00,VWS V14.01,2013-02-27 23:37:00,
2013-02-27 17:42:00,30.0,24.9,29.89,NE,54,6.0,9.0,81,0.00,,SKC,0.00,VWS V14.01,2013-02-27 23:42:00,
2013-02-27 17:47:00,29.8,25.0,29.89,NE,45,8.0,9.0,82,0.00,,SKC,0.00,VWS V14.01,2013-02-27 23:47:00,
2013-02-27 17:52:00,29.7,24.6,29.90,NE,46,8.0,10.0,81,0.00,,SKC,0.00,VWS V14.01,2013-02-27 23:52:00,
2013-02-27 17:57:00,29.6,24.5,29.90,NE,46,11.0,11.0,81,0.00,,SKC,0.00,VWS V14.01,2013-02-27 23:57:00,
2013-02-27 18:00:00,29.4,24.3,29.90,NE,44,7.0,12.0,81,0.00,,SKC,0.00,VWS V14.01,2013-02-28 00:00:00,
2013-02-27 18:03:00,29.5,24.4,29.90,NE,44,8.0,12.0,81,0.00,,SKC,0.00,VWS V14.01,2013-02-28 00:03:00,
2013-02-27 18:08:00,29.4,24.3,29.91,NE,44,8.0,10.0,81,0.00,,SKC,0.00,VWS V14.01,2013-02-28 00:08:00,
2013-02-27 18:13:00,29.3,24.2,29.91,NE,48,8.0,11.0,81,0.00,,SKC,0.00,VWS V14.01,2013-02-28 00:13:00,
2013-02-27 18:18:00,29.2,24.4,29.91,NE,47,9.0,11.0,82,0.00,,SKC,0.00,VWS V14.01,2013-02-28 00:18:00,
2013-02-27 18:23:00,29.1,24.3,29.92,NE,47,7.0,11.0,82,0.00,,SKC,0.00,VWS V14.01,2013-02-28 00:23:00,
2013-02-27 18:28:00,28.9,24.1,29.92,NE,47,7.0,11.0,82,0.00,,SKC,0.00,VWS V14.01,2013-02-28 00:28:00,
2013-02-27 18:30:00,28.8,24.0,29.92,NE,47,8.0,11.0,82,0.00,,SKC,0.00,VWS V14.01,2013-02-28 00:30:00,
2013-02-27 18:33:00,28.9,24.1,29.92,NE,47,5.0,11.0,82,0.00,,SKC,0.00,VWS V14.01,2013-02-28 00:33:00,
2013-02-27 18:38:00,28.8,24.0,29.92,NE,47,5.0,8.0,82,0.00,,SKC,0.00,VWS V14.01,2013-02-28 00:38:00,
2013-02-27 18:43:00,28.7,23.9,29.92,NE,47,7.0,8.0,82,0.00,,SKC,0.00,VWS V14.01,2013-02-28 00:43:00,
2013-02-27 18:48:00,28.5,23.7,29.93,NE,47,4.0,8.0,82,0.00,,SKC,0.00,VWS V14.01,2013-02-28 00:48:00,
2013-02-27 18:53:00,28.4,23.6,29.93,NE,47,2.0,8.0,82,0.00,,SKC,0.00,VWS V14.01,2013-02-28 00:53:00,
2013-02-27 18:58:00,28.3,23.5,29.93,NE,47,1.0,8.0,82,0.00,,SKC,0.00,VWS V14.01,2013-02-28 00:58:00,
2013-02-27 19:00:00,28.1,23.6,29.93,NE,47,0.0,8.0,83,0.00,,SKC,0.00,VWS V14.01,2013-02-28 01:00:00,
2013-02-27 19:03:00,28.2,23.7,29.93,NE,47,2.0,8.0,83,0.00,,SKC,0.00,VWS V14.01,2013-02-28 01:03:00,
2013-02-27 19:08:00,28.1,23.6,29.93,NE,47,0.0,4.0,83,0.00,,SKC,0.00,VWS V14.01,2013-02-28 01:08:00,
2013-02-27 19:13:00,28.0,23.2,29.93,NE,47,2.0,4.0,82,0.00,,SKC,0.00,VWS V14.01,2013-02-28 01:13:00,
2013-02-27 19:18:00,27.9,23.1,29.93,NE,47,0.0,4.0,82,0.00,,SKC,0.00,VWS V14.01,2013-02-28 01:18:00,
2013-02-27 19:23:00,27.8,23.0,29.94,NE,47,0.0,4.0,82,0.00,,SKC,0.00,VWS V14.01,2013-02-28 01:23:00,
2013-02-27 19:28:00,27.8,23.3,29.94,NE,47,1.0,4.0,83,0.00,,SKC,0.00,VWS V14.01,2013-02-28 01:28:00,
2013-02-27 19:30:00,27.6,23.1,29.94,NE,47,2.0,6.0,83,0.00,,SKC,0.00,VWS V14.01,2013-02-28 01:30:00,
2013-02-27 19:33:00,27.7,23.2,29.94,NE,47,0.0,4.0,83,0.00,,SKC,0.00,VWS V14.01,2013-02-28 01:33:00,
2013-02-27 19:38:00,27.6,23.1,29.94,NE,47,2.0,5.0,83,0.00,,SKC,0.00,VWS V14.01,2013-02-28 01:38:00,
2013-02-27 19:43:00,27.6,23.4,29.94,NE,46,0.0,6.0,84,0.00,,SKC,0.00,VWS V14.01,2013-02-28 01:43:00,
2013-02-27 19:48:00,27.6,23.4,29.94,NE,46,1.0,6.0,84,0.00,,SKC,0.00,VWS V14.01,2013-02-28 01:48:00,
2013-02-27 19:53:00,27.6,23.4,29.94,NE,46,2.0,6.0,84,0.00,,SKC,0.00,VWS V14.01,2013-02-28 01:53:00,
2013-02-27 19:58:00,27.5,23.3,29.94,NE,46,4.0,6.0,84,0.00,,SKC,0.00,VWS V14.01,2013-02-28 01:58:00,
2013-02-27 20:00:00,27.5,23.3,29.94,NE,46,2.0,6.0,84,0.00,,SKC,0.00,VWS V14.01,2013-02-28 02:00:00,
2013-02-27 20:03:00,27.5,23.3,29.94,NE,46,4.0,6.0,84,0.00,,SKC,0.00,VWS V14.01,2013-02-28 02:03:00,
2013-02-27 20:08:00,27.5,23.0,29.94,NE,39,0.0,8.0,83,0.00,,SKC,0.00,VWS V14.01,2013-02-28 02:08:00,
2013-02-27 20:13:00,27.4,22.9,29.95,NNE,26,1.0,8.0,83,0.00,,SKC,0.00,VWS V14.01,2013-02-28 02:13:00,
2013-02-27 20:19:00,27.3,22.8,29.94,NNE,15,5.0,8.0,83,0.00,,SKC,0.00,VWS V14.01,2013-02-28 02:19:00,
2013-02-27 20:24:00,27.2,22.7,29.94,North,5,2.0,8.0,83,0.00,,SKC,0.00,VWS V14.01,2013-02-28 02:24:00,
2013-02-27 20:29:00,27.1,22.6,29.94,North,5,4.0,8.0,83,0.00,,SKC,0.00,VWS V14.01,2013-02-28 02:29:00,
2013-02-27 20:30:00,27.0,22.8,29.95,North,360,4.0,8.0,84,0.00,,SKC,0.00,VWS V14.01,2013-02-28 02:30:00,
2013-02-27 20:34:00,27.0,22.8,29.95,North,360,2.0,8.0,84,0.00,,SKC,0.00,VWS V14.01,2013-02-28 02:34:00,
2013-02-27 20:39:00,27.0,22.8,29.95,North,360,6.0,6.0,84,0.00,,SKC,0.00,VWS V14.01,2013-02-28 02:39:00,
2013-02-27 20:44:00,27.0,22.5,29.95,NNW,344,5.0,8.0,83,0.00,,SKC,0.00,VWS V14.01,2013-02-28 02:44:00,
2013-02-27 20:49:00,27.0,22.5,29.95,NNW,342,2.0,8.0,83,0.00,,SKC,0.00,VWS V14.01,2013-02-28 02:49:00,
2013-02-27 20:54:00,26.9,22.4,29.95,NNW,340,5.0,8.0,83,0.00,,SKC,0.00,VWS V14.01,2013-02-28 02:54:00,
2013-02-27 20:59:00,26.9,22.4,29.95,NNW,339,5.0,8.0,83,0.00,,SKC,0.00,VWS V14.01,2013-02-28 02:59:00,
2013-02-27 21:00:00,26.8,22.6,29.95,North,355,6.0,8.0,84,0.00,,SKC,0.00,VWS V14.01,2013-02-28 03:00:00,
2013-02-27 21:04:00,26.8,22.6,29.95,NNW,346,4.0,8.0,84,0.00,,SKC,0.00,VWS V14.01,2013-02-28 03:04:00,
2013-02-27 21:09:00,26.7,22.2,29.94,North,350,4.0,8.0,83,0.00,,SKC,0.00,VWS V14.01,2013-02-28 03:09:00,
2013-02-27 21:14:00,26.7,22.2,29.94,NNW,339,4.0,8.0,83,0.00,,SKC,0.00,VWS V14.01,2013-02-28 03:14:00,
2013-02-27 21:19:00,26.8,22.6,29.94,NNW,342,4.0,8.0,84,0.00,,SKC,0.00,VWS V14.01,2013-02-28 03:19:00,
2013-02-27 21:24:00,26.9,22.7,29.94,NNW,342,3.0,8.0,84,0.00,,SKC,0.00,VWS V14.01,2013-02-28 03:24:00,
2013-02-27 21:29:00,27.1,22.9,29.95,NNW,342,4.0,8.0,84,0.00,,SKC,0.00,VWS V14.01,2013-02-28 03:29:00,
2013-02-27 21:30:00,27.2,22.7,29.95,NNW,329,4.0,8.0,83,0.00,,SKC,0.00,VWS V14.01,2013-02-28 03:30:00,
2013-02-27 21:34:00,27.2,22.7,29.94,NNW,330,4.0,8.0,83,0.00,,SKC,0.00,VWS V14.01,2013-02-28 03:34:00,
2013-02-27 21:39:00,27.2,22.7,29.94,NNW,329,5.0,5.0,83,0.00,,SKC,0.00,VWS V14.01,2013-02-28 03:39:00,
2013-02-27 21:44:00,27.4,22.9,29.94,NNW,329,2.0,5.0,83,0.00,,SKC,0.00,VWS V14.01,2013-02-28 03:44:00,
2013-02-27 21:49:00,27.4,22.6,29.95,NNW,329,0.0,5.0,82,0.00,,SKC,0.00,VWS V14.01,2013-02-28 03:49:00,
2013-02-27 21:54:00,27.5,22.7,29.95,NNW,329,5.0,6.0,82,0.00,,SKC,0.00,VWS V14.01,2013-02-28 03:54:00,
2013-02-27 21:59:00,27.5,22.7,29.95,NNW,330,5.0,7.0,82,0.00,,SKC,0.00,VWS V14.01,2013-02-28 03:59:00,
2013-02-27 22:00:00,27.8,23.3,29.95,NNW,330,2.0,7.0,83,0.00,,SKC,0.00,VWS V14.01,2013-02-28 04:00:00,
2013-02-27 22:04:00,27.7,22.9,29.95,NNW,330,5.0,7.0,82,0.00,,SKC,0.00,VWS V14.01,2013-02-28 04:04:00,
2013-02-27 22:09:00,27.9,23.4,29.94,NNW,328,5.0,7.0,83,0.00,,SKC,0.00,VWS V14.01,2013-02-28 04:09:00,
2013-02-27 22:14:00,27.9,23.1,29.94,NNW,328,5.0,7.0,82,0.00,,SKC,0.00,VWS V14.01,2013-02-28 04:14:00,
2013-02-27 22:19:00,27.9,22.8,29.95,NNW,327,6.0,7.0,81,0.00,,SKC,0.00,VWS V14.01,2013-02-28 04:19:00,
2013-02-27 22:24:00,28.0,22.9,29.95,NNW,329,5.0,7.0,81,0.00,,SKC,0.00,VWS V14.01,2013-02-28 04:24:00,
2013-02-27 22:29:00,28.0,22.9,29.95,NNW,327,6.0,8.0,81,0.00,,SKC,0.00,VWS V14.01,2013-02-28 04:29:00,
2013-02-27 22:30:00,28.1,22.7,29.95,NNW,327,5.0,9.0,80,0.00,,SKC,0.00,VWS V14.01,2013-02-28 04:30:00,
2013-02-27 22:34:00,28.1,22.7,29.95,NNW,327,5.0,9.0,80,0.00,,SKC,0.00,VWS V14.01,2013-02-28 04:34:00,
2013-02-27 22:39:00,28.1,22.7,29.95,NNW,327,5.0,6.0,80,0.00,,SKC,0.00,VWS V14.01,2013-02-28 04:39:00,
2013-02-27 22:44:00,28.2,22.8,29.95,NNW,327,5.0,6.0,80,0.00,,SKC,0.00,VWS V14.01,2013-02-28 04:44:00,
2013-02-27 22:50:00,28.3,22.9,29.95,NNW,338,4.0,7.0,80,0.00,,SKC,0.00,VWS V14.01,2013-02-28 04:50:00,
2013-02-27 22:55:00,28.3,23.2,29.95,NNW,339,4.0,7.0,81,0.00,,SKC,0.00,VWS V14.01,2013-02-28 04:55:00,
2013-02-27 23:00:00,28.4,23.0,29.95,NNW,339,5.0,7.0,80,0.00,,SKC,0.00,VWS V14.01,2013-02-28 05:00:00,
2013-02-27 23:01:00,28.4,23.0,29.95,NNW,339,4.0,7.0,80,0.00,,SKC,0.00,VWS V14.01,2013-02-28 05:01:00,
2013-02-27 23:06:00,28.4,23.0,29.95,North,360,8.0,8.0,80,0.00,,SKC,0.00,VWS V14.01,2013-02-28 05:06:00,
2013-02-27 23:11:00,28.5,23.1,29.95,NNW,338,5.0,8.0,80,0.00,,SKC,0.00,VWS V14.01,2013-02-28 05:11:00,
2013-02-27 23:16:00,28.6,23.2,29.95,NNW,331,1.0,8.0,80,0.00,,SKC,0.00,VWS V14.01,2013-02-28 05:16:00,
2013-02-27 23:19:00,28.6,22.9,29.95,North,351,2.0,9.0,79,0.00,,SKC,0.00,VWS V14.01,2013-02-28 05:19:00,
2013-02-27 23:24:00,28.8,23.1,29.96,NNW,347,7.0,9.0,79,0.00,,SKC,0.00,VWS V14.01,2013-02-28 05:24:00,
2013-02-27 23:29:00,28.8,23.1,29.96,North,355,6.0,9.0,79,0.00,,SKC,0.00,VWS V14.01,2013-02-28 05:29:00,
2013-02-27 23:30:00,28.9,23.2,29.96,North,360,4.0,9.0,79,0.00,,SKC,0.00,VWS V14.01,2013-02-28 05:30:00,
2013-02-27 23:34:00,28.9,23.2,29.96,North,355,4.0,9.0,79,0.00,,SKC,0.00,VWS V14.01,2013-02-28 05:34:00,
2013-02-27 23:39:00,28.9,23.5,29.96,North,351,4.0,9.0,80,0.00,,SKC,0.00,VWS V14.01,2013-02-28 05:39:00,
2013-02-27 23:44:00,28.9,23.5,29.96,NNW,332,8.0,9.0,80,0.00,,SKC,0.00,VWS V14.01,2013-02-28 05:44:00,
2013-02-27 23:49:00,28.9,23.2,29.96,NNW,342,6.0,9.0,79,0.00,,SKC,0.00,VWS V14.01,2013-02-28 05:49:00,
2013-02-27 23:54:00,28.9,23.2,29.96,NNW,339,5.0,9.0,79,0.00,,SKC,0.00,VWS V14.01,2013-02-28 05:54:00,
2013-02-27 23:59:00,29.0,23.3,29.96,NNW,334,5.0,9.0,79,0.00,,SKC,0.00,VWS V14.01,2013-02-28 05:59:00,